Location: Les Jeannots
(43.2262°N, 5.5774°E)
Time: 17:42:22
(UTC+00:00)

COSMOS 2455 - Pass Details

Date: 05 July 2020
Orbit: 898 x 911 km, 67.1° (Epoch: 13 August)

Event Time Altitude Azimuth Distance (km) Brightness Sun altitude
Rises 23:27:19 0° 331° (NNW) 3,550 7.0 -24.0°
Reaches altitude 10° 23:29:53 10° 335° (NNW) 2,606 6.2 -24.0°
Maximum altitude 23:35:51 60° 55° (NE) 1,042 3.2 -24.1°
Enters shadow 23:38:23 34° 120° (ESE) 1,451 3.6 -24.1°
